Location: Unspecified
(40.7945°N, 0.0000°E)
Time: 07:16:29
(UTC+00:00)

Courier 1B - Pass Details

Date: 29 January 2021
Orbit: 962 x 1209 km, 28.3° (Epoch: 06 March)

Event Time Altitude Azimuth Distance (km) Brightness Sun altitude
Rises 01:58:42 0° 256° (WSW) 3,698 - -57.8°
Reaches altitude 10° 02:02:30 10° 236° (SW) 2,715 - -57.2°
Maximum altitude 02:06:16 16° 200° (SSW) 2,280 - -56.6°
Drops below altitude 10° 02:10:01 10° 164° (SSE) 2,681 - -56.1°
Sets 02:13:44 0° 144° (SE) 3,628 - -55.5°
